COSMOS 1275 DEB, 42141

Orbit data source: Space-Track

COSMOS 1275 DEB, 42141 is space debris in LEO originally from a launch on Thu, 04 Jun 1981 UTC launched from the Plesetsk Missile And Space Complex (PKMTR). Debris objects in space refer to the collection of defunct objects orbiting the Earth. Examples of debris include non-operational satellites, rocket bodies, and fragments generated from explosions, collisions, or faulty payload assembly.

Loading next visibility...
Identifier
42141, 1981-053RD
Orbit
LEO
Country
Flag of CISCIS
Related business
Manufacturer
Unknown
Mission
Spacecraft
Bus & Motor
Unknown
Mass
Unknown
Launch date (UTC)
1981-06-04 (45 years ago)
Launch vehicle
Unknown
Launch site
Plesetsk Missile And Space Complex (PKMTR)
Object type
Payload
Rocket body
Debris
Shape & HBR
Unknown shape, 0.1 m
Radar Cross Section
Small (<0.1 m²)

Expand to show TLE details & history
Last TLE update: 1 week ago

TLE from 1 week ago
0 COSMOS 1275 DEB
1 42141U 81053RD  26244.43117250  .00002486  00000-0  87041-3 0  9993
2 42141  82.7741 143.3987 0022878 141.5367 218.7458 14.34667925142966
Epoch: 2026-09-01T10:20Z
TLE epoch observation values (Epoch: 2026-09-01T10:20:53.304Z)
Latitude
-0.00006°
Longitude
7.57844°
Altitude
791.931 km
Speed
7.451 km/s
True Right ascension
09h 33m 35s
True Declination
0° 00' 00"
Sunlit
Object was in daylight at epoch
Visualization orbit readout
Latitude
Unknown
Longitude
Unknown
Altitude
Unknown
Speed
Unknown
Apparent Right ascension
Unknown
Apparent Declination
Unknown
Sunlit
N/A
Visualization observer readout
Local Sidereal Time
15:00:27
Azimuth
Unknown
Elevation
Unknown
Doppler factor
Unknown
Orbital elements
Apogee altitude
789.604 km
Perigee altitude
756.883 km
Semi-major axis
7,151.381 km
Eccentricity
0.00229
Inclination
82.7741°
RAAN
143.3987°
Arg. of periapsis
141.5367°
True anomaly
218.58209°
Mean anomaly
218.7458°
Eccentric anomaly
218.66391°
Mean motion
3.58888 °/min
Orbital period
100.31 mins
BSTAR
0.00087041
Loading maneuver chart data...
Computing Atmospheric mass density...
Loading historical data...
Loading historical data...
Loading historical data...
Loading historical data...
Loading historical data...
Loading historical data...
Loading historical data...

Documentation

Showing up to 5 results
|